Regional Weather Roundup
Issued by NWS

Home | Current Version | Previous Version | Graphics & Text | Print | Product List | Glossary On
Versions: 1 2 3 4 5 6 7 8 9 10 11 12 13 14 15 16 17 18 19 20 21 22 23 24 25 26 27 28 29 30 31 32 33 34 35 36 37 38 39 40 41 42 43 44 45 46 47 48 49 50
000
ASUS43 KMKX 232311
RWRWI

WISCONSIN REGIONAL WEATHER ROUNDUP
NATIONAL WEATHER SERVICE MILWAUKEE/SULLIVAN WI
600 PM CDT TUE SEP 23 2014

NOTE: "FAIR" INDICATES FEW OR NO CLOUDS BELOW 12,000 FEET WITH NO
SIGNIFICANT WEATHER AND/OR OBSTRUCTIONS TO VISIBILITY.

WIZ001-002-006>008-014>016-023>028-240000-
NORTHWEST WISCONSIN

CITY           SKY/WX    TMP DP  RH WIND       PRES   REMARKS
SUPERIOR ARPT  MOSUNNY   70  56  61 S3        30.14S
ASHLAND        CLEAR     68  54  60 S6        30.17F
HAYWARD        PTCLDY    69  52  54 S7        30.19S
SIREN          MOSUNNY   69  51  52 S6        30.17R
CUMBERLAND     PTCLDY    64  50  59 S5        30.19S
RICE LAKE      MOSUNNY   66  51  57 S7        30.20S
CHETEK         PTCLDY    66  54  63 MISG      30.20R
LADYSMITH      PTCLDY    70  53  54 S7        30.22S
EAU CLAIRE     MOSUNNY   69  52  54 S9        30.20R
MENOMONIE      MOCLDY    71  52  50 SE9       30.19S
NEW RICHMOND   PTSUNNY   69  49  49 S8        30.17S
OSCEOLA        PTSUNNY   71  51  49 S8        30.19S
$$

WIZ003>005-009-010-017-018-240000-
NORTH CENTRAL WISCONSIN

CITY           SKY/WX    TMP DP  RH WIND       PRES   REMARKS
MANITOWISH WTR CLEAR     69  51  52 S5        30.22S
ARBOR VITAE    CLEAR     72  51  47 SW6       30.23R
WOODRUFF       CLEAR     72  51  47 SW6       30.23R
RHINELANDER    CLEAR     69  50  50 SW5       30.25R
EAGLE RIVER    CLEAR     70  46  42 CALM      30.23R
LAND O LAKES   CLEAR     71  47  43 CALM      30.24R
PHILLIPS       PTCLDY    68  52  56 S6        30.21S
TOMAHAWK       CLEAR     67  50  55 CALM      30.24S
MEDFORD        CLEAR     67  52  57 S6        30.23S
MERRILL        CLEAR     68  53  57 S3        30.24S
$$

WIZ029-030-035-036-043>047-240000-
CENTRAL WISCONSIN

CITY           SKY/WX    TMP DP  RH WIND       PRES   REMARKS
WAUSAU         CLEAR     69  52  54 S6        30.22F
MOSINEE        CLEAR     64  54  68 S5        30.25S
MARSHFIELD     CLEAR     67  50  54 S6        30.23S
STEVENS POINT  CLEAR     69  50  50 S5        30.25S
WAUPACA        CLEAR     73  53  50 S3        30.24S
WAUTOMA        CLEAR     70  53  54 S3        30.25R
WISC RAPIDS    CLEAR     67  52  58 SW3       30.25S
CAMP DOUGLAS   MOCLDY    68  57  68 SE5       30.24S
$$

WIZ011>013-019>022-031-037>040-048>050-240000-
NORTHEAST WISCONSIN

CITY           SKY/WX    TMP DP  RH WIND       PRES   REMARKS
ANTIGO         CLEAR     67  51  57 SW6       30.25S
SHAWANO        CLEAR     74  51  45 CALM      30.24R
OCONTO         CLEAR     69  55  60 S3        30.24R
STURGEON BAY   CLEAR     64  52  63 S7        30.27R
GREEN BAY      CLEAR     70  55  59 S5        30.24S
MANITOWOC      CLEAR     62  55  77 SE7       30.27R
APPLETON       PTCLDY    70  54  56 VRB6      30.26R
CLINTONVILLE   CLEAR     72  52  49 S5        30.24R
OSHKOSH        CLEAR     70  53  54 S5        30.24S
$$

WIZ032>034-041-042-053>061-240000-
SOUTHWEST WISCONSIN

CITY           SKY/WX    TMP DP  RH WIND       PRES   REMARKS
LA CROSSE      MOSUNNY   74  50  42 S10       30.20S
SPARTA         PTCLDY    70  51  49 SE6       30.23S
VIROQUA        PTCLDY    69  48  46 S6        30.24R
BOSCOBEL       PTCLDY    73  48  41 S3        30.23S
PRAIRIE DU CHI MOSUNNY   71  46  40 SE6       30.22S
PLATTEVILLE    PTCLDY    69  48  47 SE6       30.25F
$$

WIZ056-057-062-063-064-067-068-240000-
SOUTH CENTRAL WISCONSIN

CITY           SKY/WX    TMP DP  RH WIND       PRES   REMARKS
REEDSBURG      PTCLDY    67  52  58 CALM      30.24S
BARABOO/DELLS  PTCLDY    68  49  50 CALM      30.25S
LONE ROCK      PTCLDY    75  50  41 S6        30.24S
MINERAL POINT  PTCLDY    68  48  49 SE5       30.25S
MADISON        PTCLDY    71  48  43 S7        30.25S
MIDDLETON      CLEAR     72  45  37 SW5       30.26S
WATERTOWN      CLEAR     69  49  48 SW3       30.26S
MONROE         PTCLDY    70  48  46 S5        30.26S
JANESVILLE     CLEAR     72  48  43 S6        30.26S
$$

WIZ051-052-058>065-066-070>072-240000-
SOUTHEAST WISCONSIN

CITY           SKY/WX    TMP DP  RH WIND       PRES   REMARKS
MILWAUKEE      PTCLDY    66  51  58 SE9       30.27S
WAUKESHA       CLEAR     70  48  46 SW3       30.28S
MILWAUKEE/TIMM CLEAR     72  48  43 SE6       30.27R
RACINE         CLEAR     66  48  52 S9        30.29S
BURLINGTON     CLEAR     68  50  51 S3        30.27S
KENOSHA        CLEAR     67  50  54 S8        30.28S
FOND DU LAC    CLEAR     71  52  50 SW3       30.25S
SHEBOYGAN      CLEAR     67  53  61 S8        30.26S
WEST BEND      CLEAR     68  50  52 SE7       30.26S
JUNEAU         CLEAR     70  50  49 S5        30.27S
$$

LSZ147-162-240000-
LAKE SUPERIOR

STATION/POSITION TIME  TEMP    WIND        PRES    WAVE
                       AIR SEA DIR/SP/G            HT/PER
                 (UTC) (F)     (DEG/KT/KT) (MB)    (FT/S)
W MID LAKE BUOY  2250   52 51  110/  6/  8 1022.1R   1
DEVILS ISLAND    2300   61      70/  6/  7 1021.5F
PORT WING        2200   66      40/  6/  8 1021.0
SAXON HARBOR     2200   68        CALM     1021.7S
$$

LMZ867-665-643>646-240000-
LAKE MICHIGAN

STATION/POSITION TIME  TEMP    WIND        PRES    WAVE
                       AIR SEA DIR/SP/G            HT/PER
                 (UTC) (F)     (DEG/KT/KT) (MB)    (FT/S)
CHAMBERS ISLAND  2200   69     180/  3/  7 1023.7F
S GREEN BAY BUOY 2300   65                 1025.0R
N MID LAKE BUOY  2250   59 58  200/ 12/ 14 1024.8R   1/ 3
NORTHPORT PIER   2200   66     160/  5/  8 1024.0R
KEWAUNEE LAKESHO 2200   57     170/  7/  8 1023.7F
SHEBOYGAN LAKESH 2300   63 53  190/ 13/ 13 1025.1R
PORT WASHINGTON  2240   63     200/  5/  8 1025.4S
ATWATER BUOY     2300   61     160/ 10/ 12 1025.9R
S MID LAKE BUOY  2250   63 62  160/  8/  8 1025.8F   1
KENOSHA   LAKESH 2300   63     180/ 12/ 15 1024.7S
$$

TC  - TEMPERATURE IN CELSIUS
VSB - VISIBILITY IN STATUTE MILES
WCI - WIND CHILL INDEX
HX  - HEAT INDEX




USA.gov is the U.S. government's official web portal to all federal, state and local government web resources and services.